Форум фильмов, сериалов и мультфильмов

Объявление

Информация о пользователе

Привет, Гость! Войдите или зарегистрируйтесь.


Вы здесь » Форум фильмов, сериалов и мультфильмов » Зарубежная музыка


Зарубежная музыка

Тем 12721 страница 12750 из 18696

Тема Ответов Просмотров Последнее сообщение
0 3 23.03.2015 21:56:15  magikgate
12722 Blue Moon - Reminisce  magikgate
0 4 23.03.2015 21:47:19  magikgate
0 3 23.03.2015 21:42:13  magikgate
0 2 23.03.2015 21:36:55  magikgate
12725 Pobsky - Chasing Forests  magikgate
0 2 23.03.2015 21:01:45  magikgate
0 2 23.03.2015 20:53:51  magikgate
12727 Blue Moon - Forever  magikgate
0 3 23.03.2015 20:48:23  magikgate
0 2 23.03.2015 20:41:21  magikgate
0 2 23.03.2015 20:13:11  magikgate
0 2 23.03.2015 19:34:23  magikgate
12731 Tuomas.L - Afterlife  magikgate
0 2 23.03.2015 19:29:07  magikgate
0 2 23.03.2015 19:23:31  magikgate
0 2 23.03.2015 19:18:06  magikgate
0 14 23.03.2015 19:13:05  magikgate
12735 NDsounds - Dimension  magikgate
0 2 23.03.2015 18:56:05  magikgate
12736 Myk Bee - Essences  magikgate
0 2 23.03.2015 18:51:17  magikgate
0 2 23.03.2015 18:44:25  magikgate
0 2 23.03.2015 18:36:53  magikgate
0 4 23.03.2015 18:31:21  magikgate
0 8 23.03.2015 18:26:49  magikgate
12741 Bilal El Aly - Memories  magikgate
0 1 23.03.2015 18:21:41  magikgate
12742 4 Strings - Take Me Away  magikgate
0 2 23.03.2015 18:16:20  magikgate
0 3 23.03.2015 16:53:00  magikgate
0 3 23.03.2015 16:51:33  magikgate
0 1 23.03.2015 16:42:20  magikgate
12746 Nianaro - Cyborgs  magikgate
0 1 23.03.2015 16:37:28  magikgate
12747 Mcaree & Clancy - Morrigan  magikgate
0 1 23.03.2015 16:30:26  magikgate
0 1 23.03.2015 16:22:50  magikgate
12749 Leolife - Raider  magikgate
0 1 23.03.2015 16:17:24  magikgate
12750 Kinetica - One Dream  magikgate
0 1 23.03.2015 16:10:16  magikgate

Вы здесь » Форум фильмов, сериалов и мультфильмов » Зарубежная музыка